Other Public Products
Issued by NWS Grand Forks, ND

Home | Current Version | Previous Version | Text Only | Print | Product List | Glossary Off
Versions: 1 2 3 4 5 6 7 8 9 10 11 12 13 14 15 16 17 18 19 20 21 22 23 24 25 26 27 28 29 30 31 32 33 34 35 36 37 38 39 40 41 42 43 44 45 46 47 48 49 50

000
FPUS83 KFGF 262010
OPUFGF
PRAIRIE TO PINES WEATHER ROUNDUP
NATIONAL WEATHER SERVICE EASTERN NORTH DAKOTA/GRAND FORKS ND
200 PM CST FRI DEC 26 2014

 **SATELLITE DATA USED TO AUGMENT SKY COVER AT AUTOMATED STATIONS**
 *****  WEATHER ACROSS EASTERN NORTH DAKOTA  *****

CITY           SKY/WX    TMP DP  RH WIND       PRES   REMARKS
GRAND FORKS    CLOUDY    17  10  74 NW14      30.18S WCI   3
GRAND FORKS AF SUNNY     16  11  81 NW14      30.19S WCI   1
GRAND CITY NWS   N/A     18 N/A N/A NW13        N/A  WCI   4
BUXTON         NOT AVBL
DEVILS LAKE    MOSUNNY    7   0  72 NW14      30.16F WCI -10
FARGO          CLOUDY    25  17  72 N12       30.15S WCI  14
WAHPETON ARPT  CLOUDY    27  18  69 N12G17    30.15R WCI  16
$$

 *****  WEATHER ACROSS CENTRAL AND WESTERN NORTH DAKOTA  *****

CITY           SKY/WX    TMP DP  RH WIND       PRES   REMARKS
JAMESTOWN      CLOUDY    11   4  73 NW14      30.15F WCI  -5
BISMARCK       CLOUDY    18  11  74 N5        30.16F WCI  11
MINOT          FAIR      13   5  70 N7        30.16F WCI   3
MINOT AFB      PTSUNNY    9   7  92 N10       30.16F WCI  -6
GARRISON         N/A     17   9  70 NW9       30.15F WCI   6
WILLISTON      CLOUDY    18  12  77 W3        30.15F
DICKINSON      PTSUNNY   23  13  65 NW6       30.07F WCI  16
HETTINGER      MOSUNNY   23  12  62 NW10      30.09F WCI  12
$$

 *****  OTHER OBSERVATIONS NORTHEAST NORTH DAKOTA  *****

CITY           SKY/WX    TMP DP  RH WIND       PRES   REMARKS
WALHALLA         N/A      9   5  85 NW10      30.21S WCI  -6
LANGDON        FAIR       5  -2  72 NW14      30.14F WCI -12
CAVALIER       CLOUDY     9   3  78 W12       30.21R WCI  -6
GRAFTON        NOT AVBL
CANDO          FAIR       9   1  72 NW14      30.18S WCI  -8
FORT TOTTEN      N/A      8   1  71 NW7       29.95  WCI  -3
ROLLA          FAIR       5   0  78 NE3       30.14F
RUGBY          FAIR       7   1  78 NW16      30.17F WCI -11
 ***** THE ABOVE OBSERVATIONS ARE NON NWS ARE NOT QUALITY
        CONTROLLED AND MAY MIS-REPORT RAIN FOR SNOW...
$$

 *****  OTHER OBSERVATIONS SOUTHEAST NORTH DAKOTA *****

CITY           SKY/WX    TMP DP  RH WIND       PRES   REMARKS
COOPERSTOWN    NOT AVBL
VALLEY CITY    CLOUDY    14  14 100 N13       30.15S WCI   0
OAKES            N/A     18  18 100 NW14      30.15S WCI   4
GWINNER        CLOUDY    23  23 100 NW15      30.16R WCI  10
BUFFALO        NOT AVBL
WYNDMERE         N/A     25  18  74 N8          N/A  WCI  16
 ***** THE ABOVE OBSERVATIONS ARE NON NWS ARE NOT QUALITY
       CONTROLLED AND MAY MIS-REPORT RAIN FOR SNOW...
$$

  *****  WEATHER ACROSS NORTHERN MINNESOTA  *****

CITY           SKY/WX    TMP DP  RH WIND       PRES   REMARKS
FLAG ISLAND    FLURRIES  16  12  86 N10       30.12S WCI   3
WARROAD        FLURRIES  21  16  79 NW7       30.12S WCI  13
ROSEAU         FLURRIES  21  16  79 W8        30.13S WCI  12
HALLOCK        FLURRIES  16  10  79 NW12      30.18S WCI   3
THF RVR FALLS  CLOUDY    19  16  86 NW12      30.14S WCI   7
HALSTAD          N/A     22  16  75 N14         N/A  WCI  10
FOSSTON        CLOUDY    21  16  79 NW9       30.11F WCI  11
BAUDETTE       CLOUDY    20  13  74 N10       30.10F WCI   9
WASKISH        CLOUDY    23  18  80 CALM      30.10S
CROOKSTON      CLOUDY    19  16  86 N14       30.17F WCI   6
$$
  *****  WEATHER ACROSS CENTRAL AND WEST MINNESOTA  *****

CITY           SKY/WX    TMP DP  RH WIND       PRES   REMARKS
BEMIDJI        CLOUDY    23  16  73 N8        30.09S WCI  14
PARK RAPIDS    CLOUDY    26  18  71 N9        30.06S WCI  17
WADENA         CLOUDY    25  18  74 N8        30.07S WCI  16
DETROIT LAKES  CLOUDY    25  21  86 N7        30.10S WCI  17
MOORHEAD       CLOUDY    25  21  86 N13       30.15S WCI  13
FERGUS FALLS   CLOUDY    25  18  74 N14G20    30.15R WCI  13
ELBOW LAKE     CLOUDY    25  19  80 N9        30.10S WCI  15
MORRIS MN      MOSUNNY   27  21  80 N13       30.09S WCI  16
STAPLES        CLOUDY    25  19  80 NW7       30.07R WCI  17
WHEATON        CLOUDY    23  18  80 NW16      30.14F WCI  10
$$
  *****  WEATHER ELSEWHERE ACROSS MINNESOTA  *****

CITY           SKY/WX    TMP DP  RH WIND       PRES   REMARKS
DULUTH         FLURRIES  30  21  69 N7        30.01R WCI  23
INTRNTL FALLS  CLOUDY    24  17  74 NW9       30.08R WCI  14
ELY            CLOUDY    27  23  86 NW6       30.01S WCI  20
CLOQUET        CLOUDY    28  21  74 NW7       30.03R WCI  21
BRAINERD       CLOUDY    28  19  69 N10       30.06S WCI  19
HIBBING        CLOUDY    28  20  71 N9        30.04S WCI  19
ALEXANDRIA     CLOUDY    26  20  77 N9        30.07F WCI  17
SAINT CLOUD    CLOUDY    33  22  63 N9        30.04F
MINNEAPOLIS    CLOUDY    32  26  78 N16       30.01S WCI  21
$$

  *****  WEATHER ACROSS SOUTH DAKOTA  *****

CITY           SKY/WX    TMP DP  RH WIND       PRES   REMARKS
SIOUX FALLS    CLOUDY    28  22  78 N20       30.01F WCI  15
BROOKINGS      NOT AVBL
WATERTOWN      CLOUDY    22  17  81 N16       30.06F WCI   8
HURON          CLOUDY    24  19  81 N13       30.12S WCI  12
SISSETON         N/A     24  19  81 N17       30.12  WCI  11
ABERDEEN       CLOUDY    23  17  78 N14       30.15S WCI  11
MITCHELL       CLOUDY    25  20  81 N18       30.09F WCI  11
PIERRE         LGT SNOW  22  18  85 N14       30.12F FOG     WCI   9
MOBRIDGE       CLOUDY    20  12  71 N10       30.13S WCI   9
RAPID CITY     FLURRIES  19  13  77 NE8       30.07F WCI   9
$$

  *****  SOME WEATHER IN NEARBY STATES *****

CITY           SKY/WX    TMP DP  RH WIND       PRES   REMARKS
GLASGOW MT     MOSUNNY   26  18  71 SE6       30.07F WCI  19
GREAT FALLS MT CLOUDY    19  16  88 SW7       30.12F WCI  10
CHEYENNE WY    CLOUDY    15   7  70 N8        29.87S WCI   4
SCOTTSBLUFF NE LGT SNOW  22  17  81 CALM      30.01F
OMAHA NE       CLOUDY    34  30  85 N12       29.97R
DES MOINES IA  CLOUDY    35  31  85 N8        29.95S FOG
DAVENPORT IA   CLOUDY    50  35  56 SW7       29.94F
CHICAGO IL     PTSUNNY   49  37  63 SW13G18   29.98S
EAU CLAIRE WI  CLOUDY    35  29  78 N7        29.96S
LA CROSSE WI   SUNNY     42  32  67 W7        29.94R
$$

  *****  SOME NATIONAL WEATHER *****

CITY           SKY/WX    TMP DP  RH WIND       PRES   REMARKS
LA GUARDIA NY  MOSUNNY   49  28  44 W7        30.18F
RALEIGH NC     MOSUNNY   58  35  42 SW5       30.28F
ATLANTA GA     MOSUNNY   57  32  38 CALM      30.26F
NEW ORLEANS LA PTSUNNY   66  54  65 E9        30.12F
OKLAHOMA CITY  PTSUNNY   61  44  53 S14G22    29.84F
ALBUQUERQUE NM PTSUNNY   36  10  34 W23G29    29.86S
SALT LAKE CITY PTSUNNY   28  17  63 N14       30.03R WCI  17
LOS ANGELES CA SUNNY     59  17  19 SE6       30.07F
BOISE ID       SUNNY     35  25  66 W13       30.19F
SEATTLE WA     PTSUNNY   37  35  92 CALM      30.37F FOG
$$

*** WEATHER ACROSS MANITOBA...SASKATCHEWAN AND ONTARIO ***
                ***ONTARIO***

CITY           SKY/WX    TMP DP  RH WIND       PRES   REMARKS
GERALDTON      FLURRIES  27  23  86 NW7       29.99R WCI  19
THUNDER BAY    NOT AVBL
SIOUX LOOKOUT  NOT AVBL
TORONTO        PTSUNNY   45  36  70 S9        30.08S
BIG TROUT LK   FLURRIES   9   5  85 NW10      30.04R WCI  -6
PICKLE LAKE    FLURRIES  19  18  93 W5        29.99S WCI  13
DRYDEN         FLURRIES  16  12  86 NW8       30.06S WCI   5
KENORA         FLURRIES  12   9  85 NW7       30.11S WCI   2
$$
                *** MANITOBA***

CITY           SKY/WX    TMP DP  RH WIND       PRES   REMARKS
BRANDON        MOSUNNY   -2  -9  71 W13       30.21F WCI -21
DAUPHIN        MOSUNNY   -4 -11  71 W10       30.22F WCI -21
ISLAND LAKE    PTCLDY    -6 -13  71 SW6       30.14S WCI -18
PILOT MOUND      N/A     -2  -8  78 NW9         N/A  WCI -18
THE PAS        FLURRIES  -4  -9  77 W12       30.16F WCI -22
THOMPSON       PTCLDY   -17 -24  70 W7        30.10F WCI -33
WINNIPEG       NOT AVBL
GILLAM         PTCLDY   -15 -22  70 W13       30.08S WCI -37
$$
                ***SASKATCHEWAN***

CITY           SKY/WX    TMP DP  RH WIND       PRES   REMARKS
ESTEVAN        PTSUNNY    5  -2  72 N3        30.15F
KINDERSLEY     NOT AVBL
LLOYDMINSTER   LGT SNOW  10   9  92 NW12      30.03S WCI  -4
PRINCE ALBERT  FLURRIES  -2  -6  84 S3        30.10F
REGINA         PTSUNNY    3   1  92 SE8       30.14F WCI -10
YORKTON        SUNNY     -4  -9  77 S5        30.16F WCI -15
N. BATTLEFORD  FLURRIES  10   9  92 W7        30.08S WCI   0
LA RONGE       MOSUNNY   -8 -13  77 W2        30.10F


USA.gov is the U.S. government's official web portal to all federal, state and local government web resources and services.